Regional Weather Roundup
Issued by NWS

Home | Current Version | Previous Version | Graphics & Text | Print | Product List | Glossary Off
Versions: 1 2 3 4 5 6 7 8 9 10 11 12 13 14 15 16 17 18 19 20 21 22 23 24 25 26 27 28 29 30 31 32 33 34 35 36 37 38 39 40 41 42 43 44 45 46 47 48 49 50

000
ASUS43 KFSD 042002
RWRSD

WEATHER ROUNDUP FOR SOUTH DAKOTA
NATIONAL WEATHER SERVICE SIOUX FALLS SD
300 PM CDT TUE AUG 04 2015

NOTE: "FAIR" INDICATES FEW OR NO CLOUDS BELOW 12,000 FEET WITH NO
SIGNIFICANT WEATHER AND/OR OBSTRUCTIONS TO VISIBILITY.


SDZ001>005-009-010-012>017-042100-
NORTHWEST AND NORTH CENTRAL SOUTH DAKOTA

CITY           SKY/WX    TMP DP  RH WIND       PRES   REMARKS
FAITH            N/A     84  52  33 SE16      29.95S
MOBRIDGE       MOSUNNY   85  63  47 S12       29.94S
$$

SDZ012>016-024>037-041>051-057-063-072>074-042100-
SOUTHWEST AND SOUTH CENTRAL SOUTH DAKOTA

CITY           SKY/WX    TMP DP  RH WIND       PRES   REMARKS
RAPID CTY ARPT MOSUNNY   80  63  55 S16G23    29.96R
PIERRE         PTSUNNY   82  62  50 E16       29.94S
CUSTER         PTSUNNY   74  58  57 VRB7      30.09R
ELLSWORTH AFB  PTSUNNY   82  62  50 S18       29.95R
PHILIP         MOSUNNY   83  62  49 E13G21    29.93F
PINE RIDGE     PTSUNNY   81  59  47 S8        29.99R
WINNER         FAIR      83  62  49 SE12      29.96S
$$

SDZ004>011-016>023-039-040-042100-
NORTHEAST SOUTH DAKOTA

CITY           SKY/WX    TMP DP  RH WIND       PRES   REMARKS
ABERDEEN       MOSUNNY   82  56  40 E12       29.98S
WATERTOWN      PTSUNNY   79  53  40 SE8       30.00S
BROOKINGS      PTSUNNY   77  61  57 SE5       30.02S
$$

SDZ017-020-022-023-036>040-048>070-042100-
SOUTHEAST SOUTH DAKOTA

CITY           SKY/WX    TMP DP  RH WIND       PRES   REMARKS
SIOUX FALLS    CLOUDY    76  62  62 SE5       29.99F
HURON          CLOUDY    80  62  54 SE6       29.97R
CHAMBERLAIN    PTSUNNY   77  64  63 SE10      29.97S
MITCHELL       PTSUNNY   79  65  62 SE10      29.98R
YANKTON        PTSUNNY   77  64  65 E12       29.96S
$$

ABBREVIATIONS USED IN REMARKS
   TC - TEMPERATURE IN CELSIUS
  WCI - WIND CHILL INDEX
   HX - HEAT INDEX
  VSB - VISIBILITY




USA.gov is the U.S. government's official web portal to all federal, state and local government web resources and services.